This is the latest recevied weather packets stored in our database for station/object IR3AS. If no packets are shown the sender has not sent any weather packets the latest 10 day(s).
| Time | Temp. | Humidity | Pressure | Rain* | Wind** | Luminosity | Snow |
|---|---|---|---|---|---|---|---|
| 1787385913 | 12.78° C | 66% | 863.5 hPa | 0 mm | - | - | - |
| 1787385613 | 12.78° C | 66% | 863.4 hPa | 0 mm | - | - | - |
| 1787385313 | 12.78° C | 66% | 862.8 hPa | 0 mm | - | - | - |
| 1787385013 | 13.33° C | 68% | 863.7 hPa | 0 mm | - | - | - |
| 1787384713 | 13.33° C | 68% | 866.4 hPa | 0 mm | - | - | - |
| 1787384413 | 13.33° C | 66% | 864.7 hPa | 0 mm | - | - | - |
| 1787384113 | 13.33° C | 66% | 865.4 hPa | 0 mm | - | - | - |
| 1787383813 | 13.33° C | 64% | 863.2 hPa | 0 mm | - | - | - |
| 1787383513 | 13.33° C | 65% | 864 hPa | 0 mm | - | - | - |
| 1787383245 | 13.33° C | 65% | 865.1 hPa | 0 mm | - | - | - |
| 1787383213 | 13.33° C | 65% | 865.1 hPa | 0 mm | - | - | - |
| 1787382913 | 13.33° C | 67% | 865.8 hPa | 0 mm | - | - | - |
| 1787382613 | 13.33° C | 65% | 866 hPa | 0 mm | - | - | - |
| 1787382313 | 13.33° C | 65% | 866.4 hPa | 0 mm | - | - | - |
| 1787382013 | 13.33° C | 66% | 865.1 hPa | 0 mm | - | - | - |
| 1787381713 | 13.33° C | 64% | 864.7 hPa | 0 mm | - | - | - |
| 1787381413 | 13.89° C | 63% | 863.2 hPa | 0 mm | - | - | - |
| 1787381113 | 15° C | 62% | 863.3 hPa | 0 mm | - | - | - |
| 1787380813 | 15° C | 61% | 863.4 hPa | 0 mm | - | - | - |
| 1787380513 | 15.56° C | 59% | 863.2 hPa | 0 mm | - | - | - |
| 1787380213 | 16.11° C | 58% | 862.6 hPa | 0 mm | - | - | - |
| 1787379913 | 17.22° C | 59% | 862.8 hPa | 0 mm | - | - | - |
| 1787379613 | 17.22° C | 59% | 863 hPa | 0 mm | - | - | - |
| 1787379313 | 17.22° C | 59% | 865.4 hPa | 0 mm | - | - | - |
| 1787379013 | 16.11° C | 61% | 862.8 hPa | 0 mm | - | - | - |
* Rain latest hour (hover to see other rain measurements)
** Current wind speed in m/s (hover to see current wind gust speed)